30-08-2022, 00:00:04,      0,    0.0,   10.4,   0.00,   0.00, 1020.0,   82.7, -999.0
30-08-2022, 00:00:15,      0,    0.4,   10.5,   0.00,   0.00, 1020.0,   83.0, -999.0
30-08-2022, 00:00:24,      0,    0.0,   10.4,   0.00,   0.00, 1020.0,   82.7, -999.0
30-08-2022, 00:00:34,     68,    0.2,   10.4,   0.00,   0.00, 1020.0,   82.7, -999.0
30-08-2022, 00:00:44,     64,    0.1,   10.4,   0.00,   0.00, 1020.0,   82.9, -999.0
30-08-2022, 00:00:54,     64,    0.0,   10.5,   0.00,   0.00, 1020.0,   82.8, -999.0
30-08-2022, 00:01:04,     64,    0.0,   10.4,   0.00,   0.00, 1020.0,   82.8, -999.0
30-08-2022, 00:01:14,     64,    0.0,   10.4,   0.00,   0.00, 1020.0,   82.8, -999.0
30-08-2022, 00:01:24,     64,    0.0,   10.4,   0.00,   0.00, 1020.0,   82.7, -999.0
30-08-2022, 00:01:34,     64,    0.0,   10.4,   0.00,   0.00, 1020.0,   82.7, -999.0
30-08-2022, 00:01:44,     64,    0.0,   10.4,   0.00,   0.00, 1020.0,   82.7, -999.0
30-08-2022, 00:01:54,     64,    0.0,   10.4,   0.00,   0.00, 1020.0,   82.8, -999.0
30-08-2022, 00:02:04,     64,    0.0,   10.4,   0.00,   0.00, 1020.0,   82.7, -999.0
30-08-2022, 00:02:14,     64,    0.0,   10.4,   0.00,   0.00, 1020.0,   82.8, -999.0
30-08-2022, 00:02:24,     64,    0.0,   10.4,   0.00,   0.00, 1020.0,   82.7, -999.0
30-08-2022, 00:02:34,     64,    0.0,   10.4,   0.00,   0.00, 1020.0,   82.7, -999.0
30-08-2022, 00:02:44,     64,    0.0,   10.3,   0.00,   0.00, 1020.0,   82.8, -999.0
30-08-2022, 00:02:54,     64,    0.0,   10.4,   0.00,   0.00, 1020.0,   82.8, -999.0
30-08-2022, 00:03:03,     64,    0.0,   10.4,   0.00,   0.00, 1020.0,   82.9, -999.0
30-08-2022, 00:03:13,     64,    0.0,   10.4,   0.00,   0.00, 1020.0,   83.1, -999.0
30-08-2022, 00:03:24,     64,    0.0,   10.4,   0.00,   0.00, 1020.0,   83.1, -999.0
30-08-2022, 00:03:34,     64,    0.0,   10.4,   0.00,   0.00, 1020.0,   83.0, -999.0
30-08-2022, 00:03:43,     64,    0.0,   10.5,   0.00,   0.00, 1020.0,   82.9, -999.0
30-08-2022, 00:03:53,     64,    0.0,   10.5,   0.00,   0.00, 1020.0,   83.0, -999.0
30-08-2022, 00:04:03,     64,    0.0,   10.4,   0.00,   0.00, 1020.0,   83.0, -999.0
30-08-2022, 00:04:13,     60,    0.0,   10.4,   0.00,   0.00, 1020.0,   82.8, -999.0
30-08-2022, 00:04:23,      0,    0.9,   10.4,   0.00,   0.00, 1020.2,   83.2, -999.0
30-08-2022, 00:04:33,     24,    0.4,   10.4,   0.00,   0.00, 1020.1,   83.3, -999.0
30-08-2022, 00:04:43,     23,    0.0,   10.4,   0.00,   0.00, 1020.0,   83.0, -999.0
30-08-2022, 00:04:53,     24,    0.0,   10.4,   0.00,   0.00, 1020.0,   83.1, -999.0
30-08-2022, 00:05:03,     23,    0.0,   10.5,   0.00,   0.00, 1020.0,   83.1, -999.0
30-08-2022, 00:05:13,     24,    0.0,   10.5,   0.00,   0.00, 1020.0,   83.1, -999.0
30-08-2022, 00:05:23,     23,    0.0,   10.5,   0.00,   0.00, 1020.0,   83.1, -999.0
30-08-2022, 00:05:33,     24,    0.2,   10.4,   0.00,   0.00, 1020.1,   83.2, -999.0
30-08-2022, 00:05:42,     23,    0.6,   10.4,   0.00,   0.00, 1020.1,   83.4, -999.0
30-08-2022, 00:05:53,     23,    0.0,   10.4,   0.00,   0.00, 1020.0,   83.0, -999.0
30-08-2022, 00:06:03,     23,    0.0,   10.4,   0.00,   0.00, 1020.0,   83.1, -999.0
30-08-2022, 00:06:12,     23,    0.0,   10.4,   0.00,   0.00, 1020.0,   83.1, -999.0
30-08-2022, 00:06:22,     23,    0.0,   10.2,   0.00,   0.00, 1020.0,   83.1, -999.0
30-08-2022, 00:06:32,     23,    0.0,   10.4,   0.00,   0.00, 1020.0,   83.1, -999.0
30-08-2022, 00:06:42,     24,    0.0,   10.3,   0.00,   0.00, 1020.0,   83.0, -999.0
30-08-2022, 00:06:52,     23,    0.0,   10.4,   0.00,   0.00, 1020.1,   83.1, -999.0
30-08-2022, 00:07:02,     23,    0.0,   10.4,   0.00,   0.00, 1020.0,   83.1, -999.0
30-08-2022, 00:07:12,     23,    0.0,   10.4,   0.00,   0.00, 1020.0,   83.1, -999.0
30-08-2022, 00:07:22,     23,    0.0,   10.3,   0.00,   0.00, 1020.0,   83.0, -999.0
30-08-2022, 00:07:32,     23,    0.0,   10.3,   0.00,   0.00, 1020.0,   83.1, -999.0
30-08-2022, 00:07:42,     23,    0.0,   10.4,   0.00,   0.00, 1020.0,   83.2, -999.0
30-08-2022, 00:07:52,     23,    0.0,   10.4,   0.00,   0.00, 1020.0,   83.3, -999.0
30-08-2022, 00:08:02,     23,    0.0,   10.4,   0.00,   0.00, 1020.0,   83.3, -999.0
30-08-2022, 00:08:12,     24,    0.0,   10.4,   0.00,   0.00, 1020.1,   83.4, -999.0
30-08-2022, 00:08:22,     23,    0.0,   10.3,   0.00,   0.00, 1020.0,   83.3, -999.0
30-08-2022, 00:08:32,     23,    0.0,   10.4,   0.00,   0.00, 1020.0,   83.2, -999.0
30-08-2022, 00:08:42,     23,    0.0,   10.4,   0.00,   0.00, 1020.0,   83.3, -999.0
30-08-2022, 00:08:51,     23,    0.0,   10.3,   0.00,   0.00, 1020.1,   83.3, -999.0
30-08-2022, 00:09:02,     23,    0.0,   10.3,   0.00,   0.00, 1020.1,   83.4, -999.0
30-08-2022, 00:09:11,     24,    0.2,   10.5,   0.00,   0.00, 1020.1,   83.6, -999.0
30-08-2022, 00:09:21,     23,    0.1,   10.5,   0.00,   0.00, 1020.1,   83.5, -999.0
30-08-2022, 00:09:32,     23,    0.0,   10.4,   0.00,   0.00, 1020.1,   83.4, -999.0
30-08-2022, 00:09:41,     23,    0.0,   10.4,   0.00,   0.00, 1020.1,   83.3, -999.0
30-08-2022, 00:09:51,     23,    0.0,   10.4,   0.00,   0.00, 1020.0,   83.4, -999.0
30-08-2022, 00:10:01,     23,    0.0,   10.4,   0.00,   0.00, 1020.0,   83.4, -999.0
30-08-2022, 00:10:11,     23,    0.0,   10.4,   0.00,   0.00, 1020.0,   83.3, -999.0
30-08-2022, 00:10:21,     24,    0.0,   10.4,   0.00,   0.00, 1020.0,   83.3, -999.0
30-08-2022, 00:10:31,     23,    0.0,   10.4,   0.00,   0.00, 1020.0,   83.3, -999.0
30-08-2022, 00:10:41,     24,    0.0,   10.4,   0.00,   0.00, 1020.1,   83.3, -999.0
30-08-2022, 00:10:51,     23,    0.0,   10.3,   0.00,   0.00, 1020.0,   83.3, -999.0
30-08-2022, 00:11:01,     24,    0.0,   10.3,   0.00,   0.00, 1020.1,   83.3, -999.0
30-08-2022, 00:11:11,     23,    0.0,   10.3,   0.00,   0.00, 1020.0,   83.3, -999.0
30-08-2022, 00:11:20,     23,    0.0,   10.4,   0.00,   0.00, 1020.0,   83.2, -999.0
30-08-2022, 00:11:31,     24,    0.0,   10.3,   0.00,   0.00, 1020.0,   83.2, -999.0
30-08-2022, 00:11:41,     23,    0.0,   10.3,   0.00,   0.00, 1020.0,   83.3, -999.0
30-08-2022, 00:11:50,     23,    0.0,   10.2,   0.00,   0.00, 1020.0,   83.4, -999.0
30-08-2022, 00:12:01,     24,    0.0,   10.3,   0.00,   0.00, 1020.0,   83.3, -999.0
30-08-2022, 00:12:11,     24,    0.0,   10.4,   0.00,   0.00, 1020.1,   83.4, -999.0
30-08-2022, 00:12:20,     24,    0.0,   10.4,   0.00,   0.00, 1020.0,   83.6, -999.0
30-08-2022, 00:12:30,     24,    0.0,   10.4,   0.00,   0.00, 1020.0,   83.7, -999.0
30-08-2022, 00:12:40,     24,    0.0,   10.4,   0.00,   0.00, 1020.0,   83.6, -999.0
30-08-2022, 00:12:50,     24,    0.0,   10.4,   0.00,   0.00, 1020.0,   83.6, -999.0
30-08-2022, 00:13:00,     24,    0.0,   10.3,   0.00,   0.00, 1020.0,   83.6, -999.0
30-08-2022, 00:13:10,     24,    0.0,   10.3,   0.00,   0.00, 1020.0,   83.5, -999.0
30-08-2022, 00:13:20,     24,    0.0,   10.3,   0.00,   0.00, 1020.0,   83.5, -999.0
30-08-2022, 00:13:30,     24,    0.0,   10.3,   0.00,   0.00, 1020.0,   83.3, -999.0
30-08-2022, 00:13:40,     24,    0.0,   10.3,   0.00,   0.00, 1020.0,   83.3, -999.0
30-08-2022, 00:13:50,     24,    0.0,   10.3,   0.00,   0.00, 1020.0,   83.3, -999.0
30-08-2022, 00:14:00,    358,    1.0,   10.3,   0.00,   0.00, 1020.1,   83.7, -999.0
30-08-2022, 00:14:10,    329,    0.7,   10.3,   0.00,   0.00, 1020.1,   83.6, -999.0
30-08-2022, 00:14:20,      0,    0.2,   10.3,   0.00,   0.00, 1020.1,   83.7, -999.0
30-08-2022, 00:14:30,      0,    0.0,   10.3,   0.00,   0.00, 1020.0,   83.4, -999.0
30-08-2022, 00:14:40,      0,    0.0,   10.3,   0.00,   0.00, 1020.0,   83.5, -999.0
30-08-2022, 00:14:50,      0,    0.1,   10.3,   0.00,   0.00, 1020.0,   83.7, -999.0
30-08-2022, 00:14:59,      0,    0.2,   10.4,   0.00,   0.00, 1020.1,   83.8, -999.0
30-08-2022, 00:15:10,      0,    0.0,   10.4,   0.00,   0.00, 1020.0,   83.7, -999.0
30-08-2022, 00:15:19,      0,    0.0,   10.3,   0.00,   0.00, 1020.0,   83.7, -999.0
30-08-2022, 00:15:29,      0,    0.0,   10.4,   0.00,   0.00, 1020.0,   83.7, -999.0
30-08-2022, 00:15:39,      0,    0.0,   10.3,   0.00,   0.00, 1020.0,   83.7, -999.0
30-08-2022, 00:15:49,      0,    0.2,   10.4,   0.00,   0.00, 1020.1,   84.0, -999.0
30-08-2022, 00:15:59,      0,    0.1,   10.3,   0.00,   0.00, 1020.1,   84.0, -999.0
30-08-2022, 00:16:09,      0,    0.1,   10.4,   0.00,   0.00, 1020.1,   84.0, -999.0
30-08-2022, 00:16:19,     27,    0.4,   10.3,   0.00,   0.00, 1020.1,   84.1, -999.0
30-08-2022, 00:16:29,     28,    0.0,   10.3,   0.00,   0.00, 1020.0,   83.6, -999.0
30-08-2022, 00:16:39,     27,    0.0,   10.3,   0.00,   0.00, 1020.0,   83.7, -999.0
30-08-2022, 00:16:49,     28,    0.0,   10.3,   0.00,   0.00, 1020.0,   83.7, -999.0
30-08-2022, 00:16:59,     27,    0.0,   10.3,   0.00,   0.00, 1020.0,   83.7, -999.0
30-08-2022, 00:17:09,     27,    0.0,   10.3,   0.00,   0.00, 1020.0,   83.7, -999.0
30-08-2022, 00:17:19,     27,    0.0,   10.3,   0.00,   0.00, 1020.0,   83.7, -999.0
30-08-2022, 00:17:28,     27,    0.0,   10.3,   0.00,   0.00, 1020.0,   83.8, -999.0
30-08-2022, 00:17:39,     28,    0.0,   10.3,   0.00,   0.00, 1020.0,   83.7, -999.0
30-08-2022, 00:17:49,     29,    0.0,   10.3,   0.00,   0.00, 1020.0,   83.9, -999.0
30-08-2022, 00:17:58,     28,    0.0,   10.3,   0.00,   0.00, 1020.0,   83.8, -999.0
30-08-2022, 00:18:08,     27,    0.0,   10.3,   0.00,   0.00, 1020.0,   83.8, -999.0
30-08-2022, 00:18:19,     22,    0.0,   10.3,   0.00,   0.00, 1020.0,   83.8, -999.0
30-08-2022, 00:18:28,     23,    0.5,   10.4,   0.00,   0.00, 1020.2,   84.1, -999.0
30-08-2022, 00:18:38,     23,    0.1,   10.4,   0.00,   0.00, 1020.1,   84.1, -999.0
30-08-2022, 00:18:48,     22,    0.0,   10.3,   0.00,   0.00, 1020.0,   83.8, -999.0
30-08-2022, 00:18:58,     22,    0.0,   10.3,   0.00,   0.00, 1020.0,   83.8, -999.0
30-08-2022, 00:19:08,     22,    0.0,   10.3,   0.00,   0.00, 1020.0,   83.7, -999.0
30-08-2022, 00:19:18,     22,    0.0,   10.3,   0.00,   0.00, 1020.0,   83.8, -999.0
30-08-2022, 00:19:28,     22,    0.0,   10.3,   0.00,   0.00, 1020.0,   83.7, -999.0
30-08-2022, 00:19:38,     22,    0.0,   10.3,   0.00,   0.00, 1020.0,   83.8, -999.0
30-08-2022, 00:19:48,     23,    0.0,   10.3,   0.00,   0.00, 1020.0,   83.7, -999.0
30-08-2022, 00:19:58,     22,    0.0,   10.3,   0.00,   0.00, 1020.0,   83.7, -999.0
30-08-2022, 00:20:08,     22,    0.0,   10.3,   0.00,   0.00, 1020.0,   83.7, -999.0
30-08-2022, 00:20:18,     22,    0.0,   10.3,   0.00,   0.00, 1020.0,   83.8, -999.0
30-08-2022, 00:20:28,     23,    0.0,   10.2,   0.00,   0.00, 1020.0,   83.8, -999.0
30-08-2022, 00:20:37,     22,    0.0,   10.2,   0.00,   0.00, 1020.0,   83.8, -999.0
30-08-2022, 00:20:48,     23,    0.0,   10.3,   0.00,   0.00, 1020.1,   83.7, -999.0
30-08-2022, 00:20:57,     23,    0.0,   10.2,   0.00,   0.00, 1020.1,   83.7, -999.0
30-08-2022, 00:21:18,     22,    0.0,   10.2,   0.00,   0.00, 1020.1,   83.7, -999.0
30-08-2022, 00:21:27,     22,    0.0,   10.2,   0.00,   0.00, 1020.1,   83.8, -999.0
30-08-2022, 00:21:37,     22,    0.0,   10.2,   0.00,   0.00, 1020.1,   83.8, -999.0
30-08-2022, 00:21:47,     22,    0.0,   10.2,   0.00,   0.00, 1020.1,   83.8, -999.0
30-08-2022, 00:21:59,     22,    0.0,   10.2,   0.00,   0.00, 1020.1,   83.9, -999.0
30-08-2022, 00:22:07,     22,    0.0,   10.2,   0.00,   0.00, 1020.1,   83.9, -999.0
30-08-2022, 00:22:17,     22,    0.0,   10.2,   0.00,   0.00, 1020.1,   83.9, -999.0
30-08-2022, 00:22:27,     22,    0.0,   10.2,   0.00,   0.00, 1020.1,   83.9, -999.0
30-08-2022, 00:22:37,     22,    0.1,   10.3,   0.00,   0.00, 1020.1,   84.0, -999.0
30-08-2022, 00:22:47,     22,    0.0,   10.2,   0.00,   0.00, 1020.0,   83.9, -999.0
30-08-2022, 00:22:57,     22,    0.1,   10.2,   0.00,   0.00, 1020.1,   84.0, -999.0
30-08-2022, 00:23:07,     22,    0.0,   10.2,   0.00,   0.00, 1020.1,   84.0, -999.0
30-08-2022, 00:23:17,     22,    0.0,   10.3,   0.00,   0.00, 1020.1,   84.0, -999.0
30-08-2022, 00:23:27,     23,    0.0,   10.2,   0.00,   0.00, 1020.0,   84.2, -999.0
30-08-2022, 00:23:36,     23,    0.0,   10.3,   0.00,   0.00, 1020.1,   84.1, -999.0
30-08-2022, 00:23:47,    330,    0.5,   10.3,   0.00,   0.00, 1020.2,   84.6, -999.0
30-08-2022, 00:23:58,    330,    0.0,   10.3,   0.00,   0.00, 1020.0,   84.2, -999.0
30-08-2022, 00:24:06,    330,    0.0,   10.2,   0.00,   0.00, 1020.0,   84.2, -999.0
30-08-2022, 00:24:16,    330,    0.0,   10.2,   0.00,   0.00, 1020.1,   84.2, -999.0
30-08-2022, 00:24:26,    330,    0.0,   10.3,   0.00,   0.00, 1020.0,   84.2, -999.0
30-08-2022, 00:24:36,    330,    0.0,   10.2,   0.00,   0.00, 1020.0,   84.3, -999.0
30-08-2022, 00:24:46,    330,    0.0,   10.2,   0.00,   0.00, 1020.0,   84.2, -999.0
30-08-2022, 00:24:56,    330,    0.0,   10.2,   0.00,   0.00, 1020.0,   84.2, -999.0
30-08-2022, 00:25:16,    330,    0.0,   10.2,   0.00,   0.00, 1020.1,   84.3, -999.0
30-08-2022, 00:25:26,    330,    0.0,   10.3,   0.00,   0.00, 1020.1,   84.3, -999.0
30-08-2022, 00:25:36,    330,    0.0,   10.2,   0.00,   0.00, 1020.0,   84.3, -999.0
30-08-2022, 00:25:46,    330,    0.0,   10.3,   0.00,   0.00, 1020.1,   84.3, -999.0
30-08-2022, 00:25:56,    330,    0.0,   10.2,   0.00,   0.00, 1020.1,   84.2, -999.0
30-08-2022, 00:26:06,    347,    0.5,   10.3,   0.00,   0.00, 1020.2,   84.6, -999.0
30-08-2022, 00:26:16,    347,    0.0,   10.2,   0.00,   0.00, 1020.0,   84.3, -999.0
30-08-2022, 00:26:26,    347,    0.0,   10.2,   0.00,   0.00, 1020.0,   84.3, -999.0
30-08-2022, 00:26:35,    347,    0.0,   10.2,   0.00,   0.00, 1020.1,   84.2, -999.0
30-08-2022, 00:26:46,    347,    0.0,   10.2,   0.00,   0.00, 1020.1,   84.3, -999.0
30-08-2022, 00:26:56,    347,    0.0,   10.2,   0.00,   0.00, 1020.0,   84.3, -999.0
30-08-2022, 00:27:05,    347,    0.0,   10.2,   0.00,   0.00, 1020.0,   84.3, -999.0
30-08-2022, 00:27:15,    347,    0.0,   10.2,   0.00,   0.00, 1020.0,   84.3, -999.0
30-08-2022, 00:27:26,    347,    0.0,   10.2,   0.00,   0.00, 1020.0,   84.3, -999.0
30-08-2022, 00:27:35,    348,    0.0,   10.2,   0.00,   0.00, 1020.0,   84.4, -999.0
30-08-2022, 00:27:45,    352,    0.0,   10.2,   0.00,   0.00, 1020.0,   84.4, -999.0
30-08-2022, 00:27:55,    353,    0.0,   10.2,   0.00,   0.00, 1020.0,   84.4, -999.0
30-08-2022, 00:28:05,    352,    0.0,   10.2,   0.00,   0.00, 1020.1,   84.4, -999.0
30-08-2022, 00:28:15,    352,    0.0,   10.2,   0.00,   0.00, 1020.1,   84.3, -999.0
30-08-2022, 00:28:25,    352,    0.0,   10.2,   0.00,   0.00, 1020.1,   84.4, -999.0
30-08-2022, 00:28:35,    352,    0.0,   10.3,   0.00,   0.00, 1020.1,   84.3, -999.0
30-08-2022, 00:28:45,    355,    0.5,   10.2,   0.00,   0.00, 1020.1,   84.7, -999.0
30-08-2022, 00:28:55,    355,    0.7,   10.2,   0.00,   0.00, 1020.2,   84.7, -999.0
30-08-2022, 00:29:05,    354,    0.0,   10.2,   0.00,   0.00, 1020.0,   84.6, -999.0
30-08-2022, 00:29:15,    355,    0.0,   10.3,   0.00,   0.00, 1020.0,   84.4, -999.0
30-08-2022, 00:29:25,    355,    0.0,   10.2,   0.00,   0.00, 1020.0,   84.5, -999.0
30-08-2022, 00:29:35,    355,    0.0,   10.2,   0.00,   0.00, 1020.1,   84.6, -999.0
30-08-2022, 00:29:44,    355,    0.0,   10.3,   0.00,   0.00, 1020.0,   84.6, -999.0
30-08-2022, 00:29:56,    355,    0.0,   10.1,   0.00,   0.00, 1020.0,   84.5, -999.0
30-08-2022, 00:30:05,    355,    0.0,   10.2,   0.00,   0.00, 1020.0,   84.4, -999.0
30-08-2022, 00:30:14,    355,    0.0,   10.2,   0.00,   0.00, 1020.0,   84.5, -999.0
30-08-2022, 00:30:24,    355,    0.0,   10.2,   0.00,   0.00, 1020.0,   84.3, -999.0
30-08-2022, 00:30:34,    355,    0.0,   10.2,   0.00,   0.00, 1020.0,   84.5, -999.0
30-08-2022, 00:30:44,    355,    0.0,   10.2,   0.00,   0.00, 1020.0,   84.4, -999.0
30-08-2022, 00:30:54,    355,    0.0,   10.2,   0.00,   0.00, 1020.0,   84.4, -999.0
30-08-2022, 00:31:04,    355,    0.0,   10.2,   0.00,   0.00, 1020.0,   84.4, -999.0
30-08-2022, 00:31:14,    357,    0.0,   10.2,   0.00,   0.00, 1020.0,   84.4, -999.0
30-08-2022, 00:31:24,    357,    0.0,   10.2,   0.00,   0.00, 1020.0,   84.5, -999.0
30-08-2022, 00:31:34,    350,    0.2,   10.2,   0.00,   0.00, 1020.1,   84.7, -999.0
30-08-2022, 00:31:44,    350,    0.0,   10.2,   0.00,   0.00, 1020.0,   84.7, -999.0
30-08-2022, 00:31:54,    351,    0.0,   10.1,   0.00,   0.00, 1020.0,   84.7, -999.0
30-08-2022, 00:32:04,    350,    0.0,   10.2,   0.00,   0.00, 1020.1,   84.6, -999.0
30-08-2022, 00:32:14,    350,    0.0,   10.2,   0.00,   0.00, 1020.0,   84.6, -999.0
30-08-2022, 00:32:24,    350,    0.0,   10.2,   0.00,   0.00, 1020.1,   84.5, -999.0
30-08-2022, 00:32:34,    350,    0.0,   10.2,   0.00,   0.00, 1020.1,   84.7, -999.0
30-08-2022, 00:32:44,    350,    0.0,   10.2,   0.00,   0.00, 1020.1,   84.7, -999.0
30-08-2022, 00:32:53,    350,    0.0,   10.2,   0.00,   0.00, 1020.1,   84.7, -999.0
30-08-2022, 00:33:04,    350,    0.0,   10.2,   0.00,   0.00, 1020.0,   84.7, -999.0
30-08-2022, 00:33:13,    350,    0.0,   10.2,   0.00,   0.00, 1020.0,   84.7, -999.0
30-08-2022, 00:33:23,    350,    0.0,   10.2,   0.00,   0.00, 1020.1,   84.7, -999.0
30-08-2022, 00:33:33,    350,    0.0,   10.2,   0.00,   0.00, 1020.0,   84.6, -999.0
30-08-2022, 00:33:43,    350,    0.0,   10.2,   0.00,   0.00, 1020.0,   84.7, -999.0
30-08-2022, 00:33:53,    350,    0.0,   10.2,   0.00,   0.00, 1020.0,   84.6, -999.0
30-08-2022, 00:34:03,    350,    0.0,   10.1,   0.00,   0.00, 1020.0,   84.5, -999.0
30-08-2022, 00:34:13,    350,    0.0,   10.2,   0.00,   0.00, 1020.1,   84.6, -999.0
30-08-2022, 00:34:23,    350,    0.0,   10.2,   0.00,   0.00, 1020.0,   84.5, -999.0
30-08-2022, 00:34:33,    350,    0.0,   10.2,   0.00,   0.00, 1020.1,   84.6, -999.0
30-08-2022, 00:34:43,    351,    0.0,   10.2,   0.00,   0.00, 1020.0,   84.6, -999.0
30-08-2022, 00:34:53,    350,    0.0,   10.2,   0.00,   0.00, 1020.1,   84.8, -999.0
30-08-2022, 00:35:03,    350,    0.0,   10.1,   0.00,   0.00, 1020.1,   84.7, -999.0
30-08-2022, 00:35:13,    350,    0.0,   10.2,   0.00,   0.00, 1020.0,   84.7, -999.0
30-08-2022, 00:35:22,    350,    0.0,   10.2,   0.00,   0.00, 1020.0,   84.7, -999.0
30-08-2022, 00:35:35,    351,    0.0,   10.2,   0.00,   0.00, 1020.0,   84.8, -999.0
30-08-2022, 00:35:43,    350,    0.0,   10.2,   0.00,   0.00, 1020.0,   84.7, -999.0
30-08-2022, 00:35:52,    350,    0.0,   10.2,   0.00,   0.00, 1020.1,   84.7, -999.0
30-08-2022, 00:36:03,    350,    0.0,   10.2,   0.00,   0.00, 1020.0,   84.7, -999.0
30-08-2022, 00:36:13,    350,    0.0,   10.3,   0.00,   0.00, 1020.0,   84.8, -999.0
30-08-2022, 00:36:22,    350,    0.0,   10.2,   0.00,   0.00, 1020.0,   84.7, -999.0
30-08-2022, 00:36:32,    350,    0.0,   10.2,   0.00,   0.00, 1020.0,   84.8, -999.0
30-08-2022, 00:36:42,    350,    0.0,   10.2,   0.00,   0.00, 1020.0,   84.8, -999.0
30-08-2022, 00:36:52,    350,    0.0,   10.2,   0.00,   0.00, 1020.1,   84.7, -999.0
30-08-2022, 00:37:02,    350,    0.0,   10.2,   0.00,   0.00, 1020.0,   84.7, -999.0
30-08-2022, 00:37:12,    350,    0.0,   10.2,   0.00,   0.00, 1020.0,   84.7, -999.0
30-08-2022, 00:37:22,    350,    0.0,   10.2,   0.00,   0.00, 1020.0,   84.7, -999.0
30-08-2022, 00:37:32,    350,    0.2,   10.2,   0.00,   0.00, 1020.1,   84.8, -999.0
30-08-2022, 00:37:42,    350,    0.6,   10.3,   0.00,   0.00, 1020.2,   85.0, -999.0
30-08-2022, 00:37:52,    350,    0.4,   10.3,   0.00,   0.00, 1020.2,   85.1, -999.0
30-08-2022, 00:38:02,    350,    0.9,   10.3,   0.00,   0.00, 1020.1,   85.1, -999.0
30-08-2022, 00:38:12,    350,    0.1,   10.2,   0.00,   0.00, 1020.1,   85.0, -999.0
30-08-2022, 00:38:22,    350,    0.0,   10.1,   0.00,   0.00, 1020.1,   85.0, -999.0
30-08-2022, 00:38:32,    350,    0.2,   10.2,   0.00,   0.00, 1020.1,   85.0, -999.0
30-08-2022, 00:38:42,    351,    0.7,   10.2,   0.00,   0.00, 1020.1,   85.0, -999.0
30-08-2022, 00:38:51,    350,    0.1,   10.2,   0.00,   0.00, 1020.1,   85.0, -999.0
30-08-2022, 00:39:01,    350,    0.0,   10.1,   0.00,   0.00, 1020.0,   84.8, -999.0
30-08-2022, 00:39:12,    350,    0.0,   10.1,   0.00,   0.00, 1020.0,   84.8, -999.0
30-08-2022, 00:39:21,    350,    0.0,   10.2,   0.00,   0.00, 1020.0,   84.9, -999.0
30-08-2022, 00:39:31,    350,    0.0,   10.2,   0.00,   0.00, 1020.0,   84.8, -999.0
30-08-2022, 00:39:41,    350,    0.0,   10.2,   0.00,   0.00, 1020.0,   84.7, -999.0
30-08-2022, 00:39:51,    350,    0.0,   10.2,   0.00,   0.00, 1020.0,   84.8, -999.0
30-08-2022, 00:40:01,    350,    0.0,   10.2,   0.00,   0.00, 1020.0,   84.7, -999.0
30-08-2022, 00:40:11,    350,    0.0,   10.2,   0.00,   0.00, 1020.0,   84.8, -999.0
30-08-2022, 00:40:21,    350,    0.0,   10.1,   0.00,   0.00, 1020.0,   84.9, -999.0
30-08-2022, 00:40:31,    350,    0.0,   10.1,   0.00,   0.00, 1020.0,   85.0, -999.0
30-08-2022, 00:40:41,    350,    0.3,   10.2,   0.00,   0.00, 1020.1,   85.2, -999.0
30-08-2022, 00:40:51,    351,    0.0,   10.2,   0.00,   0.00, 1020.1,   85.1, -999.0
30-08-2022, 00:41:01,    350,    0.0,   10.1,   0.00,   0.00, 1020.0,   85.0, -999.0
30-08-2022, 00:41:11,    350,    0.0,   10.2,   0.00,   0.00, 1020.0,   85.0, -999.0
30-08-2022, 00:41:21,    350,    0.0,   10.2,   0.00,   0.00, 1020.0,   85.0, -999.0
30-08-2022, 00:41:30,    350,    0.0,   10.2,   0.00,   0.00, 1020.0,   84.8, -999.0
30-08-2022, 00:41:41,    350,    0.0,   10.2,   0.00,   0.00, 1020.0,   84.9, -999.0
30-08-2022, 00:41:51,    350,    0.0,   10.2,   0.00,   0.00, 1020.0,   84.9, -999.0
30-08-2022, 00:42:00,    350,    0.0,   10.1,   0.00,   0.00, 1020.0,   84.9, -999.0
30-08-2022, 00:42:10,    350,    0.0,   10.1,   0.00,   0.00, 1020.0,   84.9, -999.0
30-08-2022, 00:42:21,    350,    0.0,   10.1,   0.00,   0.00, 1020.0,   84.8, -999.0
30-08-2022, 00:42:30,    350,    0.6,   10.2,   0.00,   0.00, 1020.1,   85.2, -999.0
30-08-2022, 00:42:40,    350,    0.0,   10.2,   0.00,   0.00, 1020.0,   85.1, -999.0
30-08-2022, 00:42:50,    351,    0.0,   10.1,   0.00,   0.00, 1020.0,   85.0, -999.0
30-08-2022, 00:43:00,    350,    0.0,   10.2,   0.00,   0.00, 1020.0,   85.0, -999.0
30-08-2022, 00:43:10,    350,    0.0,   10.1,   0.00,   0.00, 1020.0,   85.1, -999.0
30-08-2022, 00:43:20,    350,    0.0,   10.1,   0.00,   0.00, 1020.0,   84.9, -999.0
30-08-2022, 00:43:30,    350,    0.0,   10.1,   0.00,   0.00, 1020.0,   84.9, -999.0
30-08-2022, 00:43:40,    350,    0.0,   10.1,   0.00,   0.00, 1020.0,   84.9, -999.0
30-08-2022, 00:43:50,    350,    0.0,   10.1,   0.00,   0.00, 1020.0,   84.9, -999.0
30-08-2022, 00:44:00,    351,    0.4,   10.2,   0.00,   0.00, 1020.1,   85.3, -999.0
30-08-2022, 00:44:10,    350,    0.0,   10.2,   0.00,   0.00, 1020.0,   85.0, -999.0
30-08-2022, 00:44:20,    350,    0.0,   10.1,   0.00,   0.00, 1020.0,   85.0, -999.0
30-08-2022, 00:44:30,    350,    0.0,   10.1,   0.00,   0.00, 1020.0,   85.1, -999.0
30-08-2022, 00:44:39,    350,    0.0,   10.1,   0.00,   0.00, 1020.0,   85.0, -999.0
30-08-2022, 00:44:50,    350,    0.0,   10.1,   0.00,   0.00, 1020.1,   85.1, -999.0
30-08-2022, 00:44:59,    350,    0.0,   10.1,   0.00,   0.00, 1020.0,   85.2, -999.0
30-08-2022, 00:45:09,    350,    0.0,   10.1,   0.00,   0.00, 1020.0,   85.2, -999.0
30-08-2022, 00:45:20,    350,    0.0,   10.1,   0.00,   0.00, 1020.0,   85.2, -999.0
30-08-2022, 00:45:29,    350,    0.0,   10.1,   0.00,   0.00, 1020.0,   85.0, -999.0
30-08-2022, 00:45:39,    350,    0.0,   10.1,   0.00,   0.00, 1020.0,   85.2, -999.0
30-08-2022, 00:45:49,    350,    0.0,   10.1,   0.00,   0.00, 1020.0,   85.1, -999.0
30-08-2022, 00:45:59,    350,    0.0,   10.2,   0.00,   0.00, 1020.0,   85.2, -999.0
30-08-2022, 00:46:09,    350,    0.9,   10.2,   0.00,   0.00, 1020.1,   85.5, -999.0
30-08-2022, 00:46:19,    350,    0.2,   10.2,   0.00,   0.00, 1020.0,   85.2, -999.0
30-08-2022, 00:46:29,    350,    0.0,   10.2,   0.00,   0.00, 1020.0,   85.1, -999.0
30-08-2022, 00:46:39,    350,    0.0,   10.1,   0.00,   0.00, 1020.0,   85.1, -999.0
30-08-2022, 00:46:49,    350,    0.0,   10.0,   0.00,   0.00, 1020.0,   85.1, -999.0
30-08-2022, 00:46:59,    350,    0.0,   10.1,   0.00,   0.00, 1020.0,   85.1, -999.0